Regional Weather Roundup
Issued by NWS

Home | Current Version | Previous Version | Graphics & Text | Print | Product List | Glossary On
Versions: 1 2 3 4 5 6 7 8 9 10 11 12 13 14 15 16 17 18 19 20 21 22 23 24 25 26 27 28 29 30 31 32 33 34 35 36 37 38 39 40 41 42 43 44 45 46 47 48 49 50
000
ASUS45 KCYS 241110
RWRWY

WYOMING REGIONAL WEATHER ROUNDUP
NATIONAL WEATHER SERVICE CHEYENNE WY
500 AM MDT SUN JUL 24 2016

NOTE:  "FAIR" INDICATES FEW OR NO CLOUDS BELOW 12,000 FEET
WITH NO SIGNIFICANT WEATHER AND/OR OBSTRUCTIONS TO VISIBILITY.

WYZ001-241200-
YELLOWSTONE NATIONAL PARK

CITY           SKY/WX    TMP DP  RH WIND       PRES   REMARKS
LK YELLOWSTONE   N/A     36  32  85 NW3       30.35R
W YELLOWSTONE  NOT AVBL

$$
WYZ002>013-054>058-071-098>099-241200-
NORTHERN WYOMING

CITY           SKY/WX    TMP DP  RH WIND       PRES   REMARKS
JACKSON        FAIR      37  28  70 N7        30.27R WCI  32
CODY           FAIR      54  37  54 S6        30.17F
GREYBULL       FAIR      64  39  39 VRB3      30.09R
WORLAND        FAIR      59  37  44 S7        30.11S
SHERIDAN       MOCLDY    57  43  59 N7        30.11F
BUFFALO        FAIR      61  38  42 SW6       30.17F
GILLETTE       MOCLDY    55  41  59 S3        30.13S
HULETT         CLOUDY    64  43  45 E7        30.15R
NEWCASTLE      FAIR      64  34  32 CALM      30.10F

$$
WYZ014>020-022>026-101>103-241200-
CENTRAL WYOMING

CITY           SKY/WX    TMP DP  RH WIND       PRES   REMARKS
BIG PINEY      FAIR      41  25  53 SE5       30.29R
PINEDALE       FAIR      37  28  70 W7        30.31R WCI  32
DUBOIS         PTSUNNY   45  21  39 NW10      30.29S HAZE
LANDER         FAIR      59  34  39 CALM      30.18S
RIVERTON       FAIR      63  33  32 CALM      30.19R
CASPER         FAIR      54  35  48 NE8       30.16S
DOUGLAS          N/A    N/A N/A N/A MISG      30.11S

$$
WYZ021-027>030-104>119-241200-
SOUTHERN WYOMING

CITY           SKY/WX    TMP DP  RH WIND       PRES   REMARKS
EVANSTON       FAIR      54  24  31 NE5       30.28S
KEMMERER         N/A     45  30  57 N10       30.29F
FORT BRIDGER   FAIR      52  21  29 CALM      30.30S
ROCK SPRINGS   FAIR      57  29  34 E8        30.26R
DIXON          FAIR      51  39  65 NE3       30.28R
RAWLINS        FAIR      60  19  20 W7        30.22S
SARATOGA       FAIR      50  34  53 W3        30.26S
LARAMIE        FAIR      55  44  66 SW9       30.25S
CHEYENNE       LGT RAIN  72  42  34 SW15      30.21S
TORRINGTON     FAIR      66  54  65 E10       30.04S
PINE BLUFFS    FAIR      61  54  77 SW9       30.12R

$$



USA.gov is the U.S. government's official web portal to all federal, state and local government web resources and services.